www.pogodaiklimat.ru

Погода и климат >> Архив погоды >> Боливия >> Магдалена


ПОГОДА в Магдалене

  • Прогноз погоды в Магдалене
  • Монитор погоды в Магдалене

АРХИВ ПОГОДЫ в Магдалене

Время (UTC), дата Ветер
(напр.,м/с)
 
Видим.   Явления Облачность Т
(С)
Тd
(С)
f
(%)
Тe
(С)
Тes
(С)
Комфортность P
(гПа)
Po
(гПа)
Тmin
(С)
Tmax
(С)
R
(мм)
R24
(мм)
S
(см)
21 16.09 СЗ 2 7000 м дым 3/3 600 м
[Cu med, cong]
+37.0 +20.8 39 +44 +45 опасность
перегрева
1007.7 991.6 +39.3
12 17.09 штиль 0 5000 м дым ясно +26.6 +23.0 81 +36 +41 очень
душно
1010.5 994.1 +22.4
15 17.09 СЗ 4 6000 м дым ясно +35.7 +22.9 48 +46 +58 опасность
перегрева
1010.9 994.7
18 17.09 штиль 0 6000 м дым 5/5 600 м
[Cu med, cong]
+36.8 +21.4 41 +44 +56 опасность
перегрева
1008.3 992.4
21 17.09 штиль 0 6000 м дым 6/3 600 м
[Cu med, cong Ci]
+32.0 +22.0 56 +41 +43 опасность
перегрева
1006.4 990.4 +38.5
12 18.09 СЗ 2 5000 м дым ясно +26.1 +22.9 83 +35 +39 очень
душно
1008.4 992.2 +23.4
15 18.09 СЗ 4 6000 м дым 4/0
[Ci fib]
+34.5 +23.9 54 +46 +57 опасность
перегрева
1009.2 993.1
18 18.09 СЗ 4 6000 м дым 6/6 600 м
[Cb cap]
+36.2 +21.6 43 +44 +49 опасность
перегрева
1007.2 991.0
21 18.09 СЗ 3 6000 м дым 9/4 600 м
[Cb cap Ci]
+34.4 +20.9 45 +41 +42 опасность
перегрева
1005.2 989.1 +37.9
12 19.09 СЗ 2 8000 м дым 5/0
[Ci fib]
+26.4 +22.8 81 +35 +39 очень
душно
1007.6 991.2 +23.7
15 19.09 СЗ 6 8000 м дым ясно +34.8 +23.4 52 +46 +53 опасность
перегрева
1008.9 992.7
18 19.09 СЗ 6 8000 м дым 4/4 600 м
[Cu med, cong]
+37.0 +21.6 41 +45 +48 опасность
перегрева
1006.4 990.5
21 19.09 СЗ 5 8000 м дым 1/1 600 м
[Cu hum]
+36.4 +21.7 43 +44 +46 опасность
перегрева
1004.9 989.0 +38.1
12 20.09 штиль 0 8000 м дым ясно +26.6 +22.4 78 +35 +40 очень
душно
1009.5 993.3 +22.8
15 20.09 СЗ 6 8000 м дым 1/1 600 м
[Cu hum]
+35.4 +22.6 48 +45 +51 опасность
перегрева
1010.3 994.3
18 20.09 СЗ 3 8000 м дым 6/6 600 м
[Cu med, cong]
+36.2 +21.6 43 +44 +50 опасность
перегрева
1008.1 992.2
21 20.09 С 3 8000 м гроза без осадков туман 5/5 600 м
[Cb cap]
+37.4 +21.1 39 +44 +45 опасность
перегрева
1006.7 990.8 +37.9
12 21.09 ЮВ 2 8000 м дым 9/1 600 м
[Cu med, cong Ci]
+25.7 +22.9 85 +34 +37 очень
душно
1011.5 995.1 +23.2
15 21.09 ЮВ 3 8000 м дым 9/0
[Ci]
+32.2 +21.3 53 +40 +53 опасность
солнечного
удара
1012.8 996.6
18 21.09 Ю 3 6000 м дым 9/5 600 м
[Sc Ci]
+34.1 +21.8 49 +43 +48 опасность
перегрева
1010.8 994.6
21 21.09 Ю 5 5000 м дым 9/0
[Ci]
+32.7 +20.4 48 +39 +40 очень
душно
1009.0 992.9 +35.2
12 22.09 штиль 0 5000 м дым 8/0 2000 м
[Ac trans]
+22.8 +15.5 63 +27 +30 душно 1013.8 997.4 +20.8
15 22.09 ЮВ 5 6000 м дым 3/0 2000 м
[Ac trans]
+30.2 +14.5 38 +32 +40 жарко 1014.2 998.0
18 22.09 ЮВ 3 6000 м дым 8/0 2000 м
[Ac trans Ci]
+32.6 +17.0 39 +36 +45 очень
душно
1012.7 996.6
21 22.09 ЮВ 2 6000 м дым 6/0
[Ci]
+32.8 +18.3 42 +37 +39 очень
душно
1011.1 995.0 +33.8
12 23.09 штиль 0 3000 м дым 8/0
[Ci]
+24.1 +16.1 61 +27 +32 жарко 1012.9 996.5 +21.7
15 23.09 Ю 3 5000 м дым 9/0 2000 м
[Ac trans]
+31.2 +14.3 36 +33 +40 жарко 1013.9 997.5
18 23.09 ЮВ 3 5000 м дым 8/0 2000 м
[Ac trans]
+34.5 +16.5 34 +37 +45 очень
душно
1011.2 995.1

 

Местоположение метеостанции Магдалена (Боливия): широта -13.33 долгота -64.11 высота над уровнем моря 140 м.

В архиве по умолчанию представлена погода в Магдалене за последнюю неделю. Архивные данные за месяц целиком и за предыдущие месяцы, начиная с января 2011 года, Вы можете получить, выбрав интересующий диапазон дат из раскрывающегося списка и нажав кнопку "Ввод!".


*Определитесь, кто Вы:
робот инопланетянин человек

Внимание! Время в таблицах - всемирное. Для получения местного времени необходимо прибавить поправку, которая равна -4 ч.

Смотрите также архив погоды в соседних городах и на ближайших метеорологических станциях:

Погода в Сан-Рамоне (Боливия) (64 км)
Погода в Сан-Хоакине (Боливия) (82 км)
Погода в Бауресе (Боливия) (150 км)
Погода в Санта-Ане (Боливия) (151 км)
Погода в Тринидаде (Боливия) (186 км)
Погода в Сан Игнасио де Moксосе (Боливия) (238 км)
Погода в Ассенсьон де Гуарае (Боливия) (286 км)
Погода в Санта-Розе (Боливия) (316 км)
Погода в Риберальте (Боливия) (338 км)
Погода в Сан-Борхе (Боливия) (342 км)

Пояснения к столбцам:

Ветер - указаны скорость ветра в м/с - средняя за 10 мин, порывы в срок и между сроками (в фигурных скобках) и направление, откуда дует ветер: С - северный, СВ - северо-восточный, В - восточный, ЮВ - юго-восточный, Ю - южный, ЮЗ - юго-западный, З - западный, СЗ - северо-западный.
Видимость - горизонтальная дальность видимости в метрах или километрах. При видимости от 1 до 10 км при отсутствии осадков обычно наблюдается дымка, при ухудшении видимости до 1 км и менее - туман. В сухую погоду видимость может ухудшаться дымом, пылью или мглою.
Явления - указаны атмосферные явления, наблюдавшиеся в срок или в последний час перед сроком; фигурными скобками обозначены явления, наблюдавшиеся между сроками (за 1-3 часа до срока); квадратными скобками обозначены град или гололедные отложения с указанием их диаметра в мм.
Облачность - указаны через наклонную черту общая и нижняя облачность в баллах и высота нижней границы облаков в метрах; квадратными скобками обозначены формы облаков: Ci - перистые, Cs - перисто-слоистые, Cc - перисто-кучевые, Ac - высококучевые, As - высокослоистые, Sc - слоисто-кучевые, Ns - слоисто-дождевые, Cu - кучевые, Cb - кучево-дождевые. Подробнее классификацию облаков см. в Атласе облаков (PDF).
T - Температура воздуха - температура, измеренная на высоте 2 м над землей.
Td - Температура точки росы - температура, при понижении до которой содержащийся в воздухе водяной пар достигнет насыщения.
f - Относительная влажность воздуха - влажноcть воздуха, измеренная на высоте 2 м над землей.
Te - Эффективная температура - температура, которую ощущает одетый по сезону человек в тени. Характеристика душности погоды. При расчете учитывается влияние влажности воздуха и скорости ветра на теплоощущения человека.
Tes - Эффективная температура на солнце - температура, которую ощущает человек, с поправкой на солнечный нагрев. Характеристика знойности погоды. Зависит от высоты солнца над горизонтом, облачности и скорости ветра. Ночью, в пасмурную погоду, а также при ветре 12 м/с и более поправка равна нулю.
P - Атмосферное давление - приведенное к уровню моря атмосферное давление.
Po - Атмосферное давление - измеренное на уровне метеостанции атмосферное давление.
Tmin - Минимальная температура - минимум температуры воздуха на высоте 2 м над землей.
Tmax - Максимальная температура - максимум температуры воздуха на высоте 2 м над землей.
R - Количество осадков - Количество выпавших осадков за период времени, мм. При наведении курсора мыши на число - период времени, за который выпало указанное количество осадков.
R24 - Количество осадков - Количество выпавших осадков за 24 часа, мм.
S - Снежный покров - Высота снежного покрова, см. При наведении курсора мыши на число - состояние снежного покрова и степень покрытия местности в баллах.